FENGYUN 1C DEB

Satellite information

Favourite Embed

Satellite Type and Status

DEBRISIN ORBIT

Key statistics

Satellite FENGYUN 1C DEB at a glance.

Uptime

9498

Days in orbit

Revolutions

≈ 14.2

Per day

Orbit

SSO

Sun Synchronous Orbit

Inclination

98.6

Latest

Satellite identification and parameters

Extended collection of information and parameters for FENGYUN 1C DEB.

Object identification

Identified? True

Debris? True

Object name: FENGYUN 1C DEB

International designator: 1999-025EQU

Object number (NORAD): 38147

Object ID (CCSDS): 38147

Country: PEOPLES REPUBLIC OF CHINA (PRC)

Current information (Y/N): Y

RCS size: SMALL

Orbital parameters

Period: 101.207 minutes

Inclination: 98.5667 deg

SMA: 7193.967 km

Apoapsis: 851.764 km

Periapsis: 779.899 km

RAAN: 149.4235 deg

Eccentricy: 0.0049948

Argument of periapsis: 210.2764 deg

Mean anomaly: 149.5527 deg

Mean motion: 14.22820578 rev/day

Mean motion (dot): 0.00001212 rev/day2

B* drag term: 0.00055177 1/REarth

Two-line elements (TLE)

Creation date: May 10, 2025, 5:27 p.m.

Reference frame: TEME

Reference center: EARTH

Epoch: May 9, 2025, 7:58 a.m. UTC

TLE line 0: 0 FENGYUN 1C DEB

TLE line 1: 1 38147U 99025EQU 25129.33240500 .00001212 00000-0 55177-3 0 9998

TLE line 2: 2 38147 98.5667 149.4235 0049948 210.2764 149.5527 14.22820578572950

Live tracking on map

Real-time ground track for satellite FENGYUN 1C DEB.

In-orbit conjunctions

A list of the most updated potential collisions computed for object FENGYUN 1C DEB.

Target Orbit TCA Probability of collision Miss distance Type
CZ-6A DEB LEO 2025-01-27 05:19:16 0.0001877693 143.0 (m) DEBRIS
COSMOS 1867 COOLANT LEO 2024-11-10 04:27:53 0.0009134942 381.0 (m) DEBRIS

Associated space launch

Chinese polar orbiting meteorological satellite

FENGYUN 1C DEB was lifted into orbit during the mission ‘Long March 4B | Feng Yun 1C’, on board a Long March 4B space rocket.

The launch took place on May 10, 1999, 1:33 a.m. from Launch Complex 7.

For more information about the launch, click the button.

Launch to space Long March 4B | Feng Yun 1C
Long March 4B | Feng Yun 1C

Agency: N/A

Status: Launch Successful

Launch date: May 10, 1999, 1:33 a.m. UTC

Rocket: Long March 4B

Launch pad: Launch Complex 7

Location: Taiyuan Satellite Launch Center, People's Republic of China

...

Latest news about this satellite

There are no fresh news available about this satellite. Check back as we update our databases every day.


Newsletter sign-up

Weekly statistics, charts and insights to help you stay on top of the space industry.